Terminal Aerodrome Forecast
Issued by NWS Upton, NY

Home | Current Version | Previous Version | Text Only | Print | Product List | Glossary On
Versions: 1 2 3 4 5 6 7 8 9 10 11 12 13 14 15 16 17 18 19 20 21 22 23 24 25 26 27 28 29 30 31 32 33 34 35 36 37 38 39 40 41 42 43 44 45
280
FTUS41 KOKX 031123
TAFJFK
TAF
KJFK 031123Z 0312/0418 31017G27KT P6SM SCT050
     FM031500 31022G30KT P6SM BKN050
     FM032100 31017G24KT P6SM SCT040
     FM040000 32014KT P6SM SCT040
     FM040900 33011KT P6SM FEW040=

USA.gov is the U.S. government's official web portal to all federal, state and local government web resources and services.